• In Russia
  • List of Countries
  • For 7 days
  • Water Temperature
  • Satellite Maps
  • Weather Map
  • Weather Widgets
  • user-avatar
    Login

    Hourly Weather Gjirokaster

    Today, 25 March, Saturday

    Time Temperature Precipitation Wind Pressure Humidity
    00:00 +5°C° 0 mm 0 mps 654 mmHg 83%
    01:00 +5°C° 0 mm 0 mps 654 mmHg 83%
    02:00 +5°C° 0 mm 0 mps 653 mmHg 84%
    03:00 +5°C° 0 mm 0 mps 653 mmHg 85%
    04:00 +4°C° 0 mm 0 mps 653 mmHg 86%
    05:00 +6°C° 0 mm 0 mps 654 mmHg 81%
    06:00 +8°C° 0 mm 0 mps 654 mmHg 77%
    07:00 +9°C° 0 mm 0 mps 655 mmHg 72%
    08:00 +12°C° 0 mm 1 mps 655 mmHg 64%
    09:00 +14°C° 0 mm 1 mps 656 mmHg 57%
    10:00 +16°C° 0 mm 1 mps 656 mmHg 50%
    11:00 +16°C° 0.1 mm 2 mps 656 mmHg 50%
    12:00 +16°C° 0.1 mm 2 mps 656 mmHg 50%
    13:00 +16°C° 0.1 mm 3 mps 655 mmHg 50%
    14:00 +14°C° 0.2 mm 3 mps 655 mmHg 54%
    15:00 +14°C° 0.2 mm 3 mps 655 mmHg 57%
    16:00 +14°C° 0.2 mm 2 mps 654 mmHg 60%
    17:00 +12°C° 0.1 mm 2 mps 654 mmHg 70%
    18:00 +8°C° 0.1 mm 2 mps 653 mmHg 80%
    19:00 +7°C° 0.1 mm 1 mps 653 mmHg 89%
    20:00 +7°C° 0 mm 1 mps 652 mmHg 90%
    21:00 +6°C° 0 mm 1 mps 652 mmHg 91%
    22:00 +5°C° 0 mm 1 mps 652 mmHg 92%
    23:00 +5°C° 0 mm 1 mps 652 mmHg 92%

    Tomorrow, 26 March, Sunday

    Time Temperature Precipitation Wind Pressure Humidity
    00:00 +5°C° 0 mm 1 mps 652 mmHg 92%
    01:00 +4°C° 0 mm 1 mps 652 mmHg 92%
    02:00 +4°C° 0 mm 1 mps 651 mmHg 92%
    03:00 +4°C° 0 mm 1 mps 651 mmHg 92%
    04:00 +3°C° 0 mm 1 mps 650 mmHg 91%
    05:00 +4°C° 0 mm 0 mps 651 mmHg 86%
    06:00 +5°C° 0 mm 0 mps 651 mmHg 81%
    07:00 +7°C° 0 mm 0 mps 651 mmHg 76%
    08:00 +9°C° 0 mm 1 mps 652 mmHg 69%
    09:00 +11°C° 0 mm 1 mps 652 mmHg 61%
    10:00 +12°C° 0 mm 2 mps 652 mmHg 54%
    11:00 +13°C° 0 mm 2 mps 652 mmHg 53%
    12:00 +12°C° 0 mm 3 mps 651 mmHg 52%
    13:00 +13°C° 0 mm 3 mps 651 mmHg 52%
    14:00 +12°C° 0.2 mm 3 mps 650 mmHg 56%
    15:00 +11°C° 0.2 mm 3 mps 650 mmHg 60%
    16:00 +10°C° 0.2 mm 2 mps 649 mmHg 64%
    17:00 +8°C° 0 mm 2 mps 649 mmHg 73%
    18:00 +7°C° 0 mm 1 mps 649 mmHg 82%
    19:00 +6°C° 0 mm 1 mps 648 mmHg 91%
    20:00 +6°C° 0.1 mm 1 mps 649 mmHg 91%
    21:00 +6°C° 0.1 mm 1 mps 649 mmHg 91%
    22:00 +6°C° 0.1 mm 1 mps 649 mmHg 91%
    23:00 +5°C° 0 mm 1 mps 649 mmHg 92%

    Day after tomorrow, 27 March, Monday

    Time Temperature Precipitation Wind Pressure Humidity
    00:00 +4°C° 0 mm 1 mps 649 mmHg 93%
    01:00 +3°C° 0 mm 2 mps 648 mmHg 94%
    02:00 +3°C° 0.1 mm 2 mps 648 mmHg 94%
    03:00 +3°C° 0.1 mm 2 mps 648 mmHg 94%
    04:00 +3°C° 0.1 mm 2 mps 648 mmHg 94%
    05:00 +3°C° 0.5 mm 2 mps 649 mmHg 91%
    06:00 +3°C° 0.5 mm 2 mps 649 mmHg 89%
    07:00 +4°C° 0.5 mm 2 mps 650 mmHg 86%
    08:00 +5°C° 0.5 mm 2 mps 650 mmHg 80%
    09:00 +6°C° 0.5 mm 2 mps 651 mmHg 74%
    10:00 +7°C° 0.5 mm 2 mps 651 mmHg 68%
    11:00 +7°C° 0.8 mm 3 mps 651 mmHg 68%
    12:00 +7°C° 0.8 mm 3 mps 651 mmHg 68%
    13:00 +8°C° 0.8 mm 3 mps 651 mmHg 67%
    14:00 +7°C° 0.7 mm 3 mps 651 mmHg 69%
    15:00 +7°C° 0.7 mm 3 mps 651 mmHg 71%
    16:00 +5°C° 0.7 mm 3 mps 651 mmHg 72%
    17:00 +4°C° 0.2 mm 3 mps 651 mmHg 76%
    18:00 +3°C° 0.2 mm 2 mps 651 mmHg 80%
    19:00 +2°C° 0.2 mm 2 mps 651 mmHg 84%
    20:00 +2°C° 0 mm 2 mps 651 mmHg 84%
    21:00 0°C° 0 mm 3 mps 651 mmHg 85%
    22:00 0°C° 0 mm 3 mps 652 mmHg 85%
    23:00 -1°C° 0 mm 3 mps 652 mmHg 86%

    28 March, Tuesday

    Time Temperature Precipitation Wind Pressure Humidity
    00:00 -1°C° 0 mm 3 mps 652 mmHg 86%
    01:00 -1°C° 0 mm 3 mps 652 mmHg 86%
    02:00 -1°C° 0 mm 3 mps 652 mmHg 86%
    03:00 -2°C° 0 mm 3 mps 652 mmHg 86%
    04:00 -2°C° 0 mm 3 mps 652 mmHg 86%
    05:00 -1°C° 0 mm 3 mps 653 mmHg 83%
    06:00 -1°C° 0 mm 3 mps 653 mmHg 81%
    07:00 0°C° 0 mm 3 mps 654 mmHg 78%
    08:00 +2°C° 0 mm 3 mps 654 mmHg 69%
    09:00 +5°C° 0 mm 2 mps 655 mmHg 60%
    10:00 +7°C° 0 mm 2 mps 656 mmHg 51%
    11:00 +8°C° 0 mm 2 mps 656 mmHg 47%
    12:00 +9°C° 0 mm 2 mps 656 mmHg 44%
    13:00 +10°C° 0 mm 2 mps 656 mmHg 41%
    14:00 +10°C° 0 mm 3 mps 656 mmHg 42%
    15:00 +9°C° 0 mm 3 mps 656 mmHg 44%
    16:00 +9°C° 0 mm 3 mps 655 mmHg 45%
    17:00 +7°C° 0 mm 3 mps 655 mmHg 54%
    18:00 +4°C° 0 mm 3 mps 655 mmHg 62%
    19:00 +1°C° 0 mm 3 mps 655 mmHg 70%
    20:00 +1°C° 0 mm 3 mps 655 mmHg 70%
    21:00 +1°C° 0 mm 3 mps 655 mmHg 69%
    22:00 0°C° 0 mm 3 mps 655 mmHg 69%
    23:00 +1°C° 0 mm 2 mps 655 mmHg 68%

    29 March, Wednesday

    Time Temperature Precipitation Wind Pressure Humidity
    00:00 +1°C° 0 mm 2 mps 655 mmHg 67%
    01:00 +1°C° 0 mm 2 mps 655 mmHg 66%
    02:00 +1°C° 0 mm 2 mps 655 mmHg 66%
    03:00 -1°C° 0 mm 2 mps 655 mmHg 66%
    04:00 -1°C° 0 mm 2 mps 654 mmHg 66%
    05:00 +1°C° 0 mm 2 mps 655 mmHg 65%
    06:00 +2°C° 0 mm 2 mps 655 mmHg 63%
    07:00 +4°C° 0 mm 2 mps 656 mmHg 62%
    08:00 +6°C° 0 mm 2 mps 656 mmHg 54%
    09:00 +9°C° 0 mm 1 mps 657 mmHg 46%
    10:00 +12°C° 0 mm 1 mps 658 mmHg 39%
    11:00 +13°C° 0 mm 2 mps 658 mmHg 37%
    12:00 +13°C° 0 mm 2 mps 657 mmHg 36%
    13:00 +13°C° 0 mm 3 mps 657 mmHg 34%
    14:00 +13°C° 0 mm 3 mps 657 mmHg 37%
    15:00 +12°C° 0 mm 3 mps 657 mmHg 39%
    16:00 +12°C° 0 mm 3 mps 656 mmHg 42%
    17:00 +9°C° 0 mm 3 mps 656 mmHg 51%
    18:00 +7°C° 0 mm 3 mps 655 mmHg 60%
    19:00 +3°C° 0 mm 3 mps 655 mmHg 69%
    20:00 +4°C° 0 mm 2 mps 655 mmHg 68%
    21:00 +3°C° 0 mm 2 mps 655 mmHg 68%
    22:00 +3°C° 0 mm 2 mps 655 mmHg 68%
    23:00 +3°C° 0 mm 2 mps 655 mmHg 67%

    30 March, Thursday

    Time Temperature Precipitation Wind Pressure Humidity
    00:00 +2°C° 0 mm 2 mps 654 mmHg 65%
    01:00 +2°C° 0 mm 2 mps 654 mmHg 64%
    02:00 +2°C° 0 mm 2 mps 654 mmHg 63%
    03:00 +2°C° 0 mm 2 mps 654 mmHg 62%
    04:00 +1°C° 0 mm 2 mps 654 mmHg 61%
    05:00 +3°C° 0 mm 2 mps 654 mmHg 59%
    06:00 +4°C° 0 mm 2 mps 655 mmHg 56%
    07:00 +6°C° 0 mm 2 mps 655 mmHg 54%
    08:00 +9°C° 0 mm 1 mps 656 mmHg 48%
    09:00 +11°C° 0 mm 1 mps 656 mmHg 42%
    10:00 +14°C° 0 mm 1 mps 657 mmHg 36%
    11:00 +14°C° 0 mm 2 mps 656 mmHg 36%
    12:00 +15°C° 0 mm 2 mps 656 mmHg 35%
    13:00 +16°C° 0 mm 3 mps 656 mmHg 35%
    14:00 +14°C° 0 mm 3 mps 656 mmHg 37%
    15:00 +14°C° 0 mm 3 mps 656 mmHg 40%
    16:00 +13°C° 0 mm 4 mps 655 mmHg 43%
    17:00 +10°C° 0 mm 3 mps 655 mmHg 53%
    18:00 +8°C° 0 mm 3 mps 654 mmHg 62%
    19:00 +4°C° 0 mm 3 mps 654 mmHg 71%
    20:00 +4°C° 0 mm 3 mps 654 mmHg 70%
    21:00 +4°C° 0 mm 3 mps 654 mmHg 69%
    22:00 +4°C° 0 mm 2 mps 654 mmHg 68%
    23:00 +4°C° 0 mm 2 mps 654 mmHg 68%
    Show more